ORBCOMM FM17            
1 25413U 98046A   19265.47214103  .00000017  00000-0  59304-4 0  9990
2 25413  44.9973  13.5372 0003266 214.8491 145.2141 14.30849667103099
ORBCOMM FM18            
1 25414U 98046B   19266.21463316  .00000036  00000-0  64051-4 0  9992
2 25414  44.9965 326.0200 0006041 248.6221 111.3981 14.32904677103779
ORBCOMM FM19            
1 25415U 98046C   19265.71324074  .00000066  00000-0  75080-4 0  9991
2 25415  44.9971 328.8326 0004973 237.6100 274.1945 14.32873240103704
ORBCOMM FM20            
1 25416U 98046D   19265.69085226  .00000042  00000-0  66234-4 0  9997
2 25416  44.9968 329.1566 0002195 223.6827 136.3846 14.32867768103657
ORBCOMM FM16            
1 25417U 98046E   19266.20339180 -.00000011  00000-0  46838-4 0  9992
2 25417  44.9970 327.8163 0005476 257.8228 102.2005 14.33125101103779
ORBCOMM FM15            
1 25418U 98046F   19266.19165559  .00000028  00000-0  61050-4 0  9998
2 25418  44.9999 328.7360 0004859 259.9136 130.9291 14.32905938103773
ORBCOMM FM14            
1 25419U 98046G   19266.20066830  .00000046  00000-0  67686-4 0  9994
2 25419  44.9994 328.4859 0004014 245.4773 148.0673 14.32911593103777
ORBCOMM FM13            
1 25420U 98046H   19265.19587526  .00000057  00000-0  71795-4 0  9991
2 25420  45.0004 334.1596 0006135 248.2391 111.7802 14.32771220103646
ORBCOMM FM16 DEB        
1 44018U 98046M   19265.47009395 -.00004094  00000-0 -23109-2 0  9990
2 44018  45.3549  77.4963 0324346  29.9318 331.9636 13.84979153 36717
ORBCOMM FM16 DEB        
1 44019U 98046N   19258.01606845 -.00030982  00000-0 -22452-1 0  9990
2 44019  45.3854 136.0058 0346919 310.8496  46.2737 13.71066491 34852
ORBCOMM FM16 DEB        
1 44020U 98046P   19257.97026881  .00028562  00000-0  17375-1 0  9999
2 44020  45.2181 119.5535 0337727 354.3505   5.3562 13.81160822 35063
ORBCOMM FM16 DEB        
1 44022U 98046R   19264.80128944  .00016267  00000-0  48438-2 0  9998
2 44022  45.3972  46.7726 0365251  85.2121 279.0323 14.10788371 36664
ORBCOMM FM16 DEB        
1 44023U 98046S   19265.23833699 -.00000014  00000-0  47513-4 0  9996
2 44023  45.0069 337.2744 0007658 120.6255 239.5346 14.30853807 36815
ORBCOMM FM16 DEB        
1 44024U 98046T   19263.29356961 -.00000050  00000-0  32696-4 0  9999
2 44024  44.9975 340.9392 0006280 252.6259 107.3900 14.33388412 38021
ORBCOMM FM16 DEB        
1 44026U 98046V   19265.92121747  .00002158  00000-0  15352-2 0  9993
2 44026  45.2376  64.9460 0197345  40.7012 320.8383 13.91391441 36649
ORBCOMM FM16 DEB        
1 44027U 98046W   19265.46026932 -.00012739  00000-0 -70256-2 0  9995
2 44027  45.4209  51.4813 0233110  31.4385 330.0153 13.97840933 37067
ORBCOMM FM16 DEB        
1 44028U 98046X   19265.42561801  .00016671  00000-0  53062-2 0  9994
2 44028  45.2785  55.2708 0387448  66.9525 297.1679 14.04545639 36657